Weather Roundup
Issued by NWS

Home | Current Version | Previous Version | Text Only | Print | Product List | Glossary On
Versions: 1 2 3 4 5 6 7 8 9 10 11 12 13 14 15 16 17 18 19 20 21 22 23 24 25 26 27 28 29 30 31 32 33 34 35 36 37 38 39 40 41 42 43 44 45 46 47 48 49 50
330
NZUS93 KARX 051010
HRRWXR

CURRENT HOURLY OBSERVATIONS ACROSS
MUCH OF THE UPPER MISSISSIPPI VALLEY
NATIONAL WEATHER SERVICE LA CROSSE WI
500 AM CDT THU MAY 05 2016


...SOUTHEAST MINNESOTA...


CITY           SKY/WX    TMP DP  RH WIND       PRES   REMARKS
ROCHESTER      CLEAR     43  24  47 NE5       30.03R
ROCHESTER/MAYO FAIR      42  32  68 CALM      30.03S
WINONA         CLEAR     37  34  87 CALM      30.03S
AUSTIN         CLEAR     37  30  75 CALM      30.02F
ALBERT LEA     CLEAR     39  28  65 CALM      30.03S
DODGE CENTER   PTCLDY    34  25  69 CALM      30.03R
PRESTON        CLEAR     41  25  53 NW3       30.03S
OWATONNA       CLEAR     39  27  60 CALM      30.03S
FARIBAULT      CLEAR     37  30  75 S2        30.02F
$$

...ELSEWHERE IN MINNESOTA...


CITY           SKY/WX    TMP DP  RH WIND       PRES   REMARKS
MINNEAPOLIS    MOCLDY    46  27  47 CALM      30.03R
INTNL FALLS    CLOUDY    45  28  51 S7        29.91F
DULUTH         LGT RAIN  40  33  76 CALM      30.01R
RED WING       CLEAR     34  30  86 CALM      30.02S
REDWOOD FALLS  CLEAR     43  29  57 CALM      30.00S
MANKATO        CLEAR     41  28  60 SE9       30.02S
WORTHINGTON    CLEAR     43  33  68 SW3       30.02S
FAIRMONT       CLEAR     39  30  70 CALM      30.01F
$$

...SOUTHWEST WISCONSIN...


CITY           SKY/WX    TMP DP  RH WIND       PRES   REMARKS
LA CROSSE      CLEAR     40  32  73 N5        30.02R
PRAIRIE DU CHI   N/A     37  32  84 CALM      30.01R FOG
BOSCOBEL       CLEAR     34  31  88 CALM      30.01R
LONE ROCK      CLEAR     38  32  79 N5        30.01R WCI  34
PLATTEVILLE    CLEAR     38  34  86 N5        29.98R WCI  34
FORT MC COY    CLEAR     29  28  94 CALM      30.03R
CAMP DOUGLAS   CLEAR     30  30 100 W3        30.01R
MAUSTON-NEW LI SUNNY     35  32  88 NW3       30.01R
VIROQUA        FAIR      39  31  75 CALM      30.00R
WIS DELLS      CLEAR     37  31  78 CALM      30.00R
$$

...ELSEWHERE IN WISCONSIN...


CITY           SKY/WX    TMP DP  RH WIND       PRES   REMARKS
MILWAUKEE      MOCLDY    41  32  70 N14G22    29.93R
MADISON        CLEAR     36  31  82 N6        29.98R WCI  31
GREEN BAY      CLEAR     35  31  85 N9        29.99R WCI  28
EAU CLAIRE     CLEAR     31  29  92 CALM      30.02R
BLACK RVR FLS  FAIR      27  27 100 CALM      30.02S
MEDFORD        PTCLDY    32  31  96 CALM      30.00R
WAUSAU         CLEAR     37  31  78 NW3       29.99R
WIS RAPIDS     CLEAR     34  29  82 CALM      30.02R
MARSHFIELD     CLEAR     36  30  79 E6        29.99S WCI  31
RICE LAKE      PTCLDY    34  32  90 CALM      30.03S
$$

...NORTHEAST IOWA...


CITY           SKY/WX    TMP DP  RH WIND       PRES   REMARKS
WATERLOO       CLEAR     33  29  85 CALM      30.02R
DUBUQUE        CLEAR     41  33  73 N9        29.98R
DECORAH        CLEAR     37  30  75 CALM      30.01R
MASON CITY     CLEAR     36  28  73 CALM      30.04R
CHARLES CITY   CLEAR     41  25  52 N7        30.03R
OELWEIN        CLEAR     41  30  65 N7        30.02R
$$

...ELSEWHERE IN IOWA...


CITY           SKY/WX    TMP DP  RH WIND       PRES   REMARKS
DES MOINES     CLEAR     46  37  71 CALM      30.02R
IOWA CITY      CLEAR     44  31  60 N6        30.00R
FORT DODGE     CLEAR     37  30  75 CALM      30.03R
MARSHALLTOWN   CLEAR     35  29  78 NW6       30.01R WCI  30
CEDAR RAPIDS   CLEAR     38  31  76 NW6       29.99R WCI  33
$$

...NORTHERN ILLINOIS...


CITY           SKY/WX    TMP DP  RH WIND       PRES   REMARKS
CHICAGO-OHARE  MOCLDY    42  33  70 N15       29.89R
CHICAGO-MIDWAY MOCLDY    43  33  68 N13G23    29.89R
MOLINE         CLEAR     41  35  79 CALM      29.96R
ROCKFORD       PTCLDY    40  33  76 N14       29.97R WCI  32
PEORIA         CLEAR     42  35  76 N8        29.93S
$$

NOTE: "FAIR" INDICATES FEW OR NO CLOUDS BELOW 12,000 FEET WITH NO
SIGNIFICANT WEATHER AND/OR OBSTRUCTIONS TO VISIBILITY. WIND
SPEEDS ARE IN MILES-PER-HOUR.




USA.gov is the U.S. government's official web portal to all federal, state and local government web resources and services.